Regional Weather Roundup
Issued by NWS Burlington, VT

Current Version | Previous Version | Text Only | Print | Product List | Glossary On
Versions: 1 2 3 4 5 6 7 8 9 10 11 12 13 14 15 16 17 18 19 20 21 22 23 24 25 26 27 28 29 30 31 32 33 34 35 36 37 38 39 40 41 42 43 44 45 46 47 48 49 50
000 ASUS41 KBTV 260130 RWRBTV VERMONT REGIONAL WEATHER ROUNDUP NATIONAL WEATHER SERVICE BURLINGTON VT 900 PM EDT WED MAY 25 2016 NOTE: "FAIR" INDICATES FEW OR NO CLOUDS BELOW 12,000 FEET WITH NO SIGNIFICANT WEATHER AND/OR OBSTRUCTIONS TO VISIBILITY. * THESE REPORTS ARE NOT UNDER NWS QUALITY CONTROL AND/OR DO NOT REPORT WEATHER SUCH AS PRECIPITATION AND FOG. VTZ001>019-260200- _____VERMONT_____ CITY SKY/WX TMP DP RH WIND PRES REMARKS BURLINGTON FAIR 74 53 48 N8 29.99R MONTPELIER FAIR 67 51 56 W5 30.05R MORRISVILLE CLOUDY 66 55 67 CALM 30.02R ST. JOHNSBURY* N/A 67 55 65 MISG 29.98R LYNDONVILLE* MOCLDY 66 53 62 SW3 30.03R MIDDLEBURY* MOCLDY 66 54 64 CALM 30.01R RUTLAND* FAIR 74 52 46 NW5 30.01R SPRINGFIELD FAIR 65 56 72 CALM 30.00R HIGHGATE* CLOUDY 70 56 61 CALM 30.01R NEWPORT* FAIR 64 54 71 NW7 30.02R BENNINGTON FAIR 73 53 49 SW8 30.03R MT. MANSFIELD* N/A 57 N/A N/A NW29 N/A _____LAKE CHAMPLAIN_____ CITY SKY/WX TMP DP RH WIND PRES REMARKS COLCHESTER RF* N/A 72 54 53 W5 N/A DIAMOND ISL* N/A 73 54 49 N10 N/A $$ NYZ007-026>031-035-052-083-087-260200- _____NORTHERN NEW YORK_____ CITY SKY/WX TMP DP RH WIND PRES REMARKS PLATTSBURGH CLEAR 71 55 56 NW8 30.00R SARANAC LAKE PTCLDY 68 52 56 VRB3 30.05R MASSENA MOCLDY 71 53 52 NW5 30.03R OGDENSBURG* CLEAR 64 57 77 CALM 30.04R POTSDAM* CLEAR 66 57 72 CALM 30.05R WATERTOWN CLEAR 64 53 67 CALM 30.03R FT DRUM PTCLDY 69 53 57 SW6 30.03R ALBANY PTCLDY 77 52 41 NW7 30.02R GLENS FALLS CLEAR 70 54 56 NW3 30.00R $$ NHZ002-005-011-260200- _____NEW HAMPSHIRE_____ CITY SKY/WX TMP DP RH WIND PRES REMARKS LEBANON PTCLDY 68 57 68 CALM 29.99R KEENE CLEAR 66 55 68 S3 30.01R MT WASHINGTON MOCLDY 45 44 97 W40G46 N/A PLYMOUTH FAIR 71 54 55 CALM 29.98R WHITEFIELD MOCLDY 64 58 80 S5 30.00R $$ _____REGIONAL QUEBEC LOCATIONS_____ CITY SKY/WX TMP DP RH WIND PRES REMARKS MONTREAL PTCLDY 70 54 56 NW9 30.01R QUEBEC CITY PTCLDY 63 48 59 N12G18 30.00R SHERBROOKE CLOUDY 64 57 77 NW6 30.00R _____REGIONAL ONTARIO LOCATIONS_____ CITY SKY/WX TMP DP RH WIND PRES REMARKS OTTAWA MOCLDY 68 54 60 N9 30.05R ______KEY______ VSB - VISIBILITY IN MILES WCI - WIND CHILL INDEX HX - HEAT INDEX $$ NNNN

USA.gov is the U.S. government's official web portal to all federal, state and local government web resources and services.